CAPE
702 420 456 513 567 710 602 745 852 835 535 1056 1084 908 951 1024 1326 1453 1060 1232 1383 1270 1221 1311 1409 1586 1017 810 859 770 613 459 377 239 256 808 1257 1655 1247 1513 1086 757 959
646 579 608 622 616 414 489 576 736 1029 1322 1524 1087 790 877 854 1053 1108 1060 775 1242 1284 1224 1135 1171 947 1245 1313 833 761 765 1166 749 551 566 600 1277 1104 1380 1695 1163 718 930
665 619 665 743 694 427 409 663 739 987 1249 1252 1333 1066 1053 828 895 1049 923 983 1105 1107 1103 1115 1193 1123 1138 1128 1315 895 758 747 945 815 702 603 817 888 795 1369 1124 1403 475
733 651 663 736 802 722 749 893 990 1153 1269 1016 1156 1273 1042 950 951 1124 1120 1096 1047 1075 1058 1010 917 874 1047 1195 1031 976 870 850 700 1052 637 458 582 918 866 765 837 752 31
942 975 962 993 909 923 883 1053 1026 1052 1248 980 1109 723 769 830 779 825 1233 1233 1120 1128 1029 974 839 812 847 804 841 755 664 678 610 585 490 382 564 791 592 725 689 428 6
1159 1179 1214 1373 1320 1059 1066 1127 1103 1190 1401 1197 1090 738 595 713 97 124 268 503 737 698 804 991 987 804 495 215 213 222 338 637 614 514 414 461 735 802 952 896 575 332 433
1262 1331 1337 1490 1552 1195 1186 1068 1221 1285 1261 1214 1083 967 923 243 0 0 0 321 795 602 716 900 949 575 536 1025 231 49 11 24 64 472 706 890 1113 1019 1010 614 790 336 155
785 933 1094 1231 1419 1156 1227 1125 1206 1232 1139 1211 1001 1093 909 0 0 0 0 59 676 894 784 747 798 661 865 428 589 916 449 45 7 181 750 586 207 165 214 308 578 295 0
899 965 1143 1126 1106 1098 1101 1082 835 838 768 835 749 575 531 137 0 0 0 117 310 540 342 13 0 32 17 0 199 704 115 0 0 0 0 0 0 0 2 286 155 49 45
657 419 321 330 134 221 122 156 97 147 48 0 0 0 0 0 0 0 0 34 173 122 23 2 0 0 0 0 20 93 23 0 0 0 0 0 0 0 0 0 0 4 11
276 280 185 112 80 53 110 71 51 5 0 0 0 0 0 0 0 0 0 0 1 0 1 0 0 0 0 0 0 209 123 31 0 0 0 0 0 0 0 0 0 0 0
275 244 244 135 76 27 0 0 0 0 0 0 1 1 0 0 0 0 0 0 0 1 0 0 0 0 0 0 0 0 0 0 0 0 0 0 0 0 0 0 0 0 0
78 24 1 0 0 6 0 1 0 0 0 1 0 0 0 0 0 0 0 0 0 0 0 0 0 0 0 0 0 0 0 0 0 0 0 0 0 0 0 0 0 0 0
0 0 4 0 0 0 1 4 3 3 2 2 1 0 0 0 0 0 0 0 0 0 0 0 0 0 0 0 0 0 0 0 0 0 0 0 0 0 0 0 0 0 0
3 3 1 1 0 0 0 0 0 0 0 2 0 0 0 0 0 0 0 0 0 0 0 1 0 0 0 0 0 0 0 0 0 0 0 0 0 0 0 0 0 0 0
0 0 1 0 0 0 0 1 1 1 0 0 0 0 0 0 0 0 0 0 0 0 0 0 0 0 0 0 0 0 0 0 0 0 0 0 0 0 0 0 0 0 0
0 0 0 0 0 0 0 0 0 0 0 0 0 0 0 0 0 0 0 0 0 0 0 0 0 0 0 0 0 0 0 0 0 0 0 0 0 0 0 0 0 0 0
0 0 0 0 0 0 0 0 0 0 0 0 0 0 0 0 0 0 0 0 0 0 0 0 0 0 0 0 0 0 0 0 0 0 0 0 0 0 0 0 0 0 0
0 0 0 0 0 0 0 0 0 0 0 0 0 0 0 0 0 0 0 0 0 0 0 0 0 0 0 0 0 0 0 0 0 0 0 0 0 0 0 0 0 0 0
0 0 0 0 0 0 0 0 0 0 0 0 0 0 0 0 0 0 0 0 0 0 0 0 0 0 0 0 0 0 0 0 0 0 0 0 0 0 0 0 0 0 0
0 0 0 0 0 0 0 0 0 0 0 0 0 0 0 0 0 0 0 0 0 0 0 0 0 0 0 0 0 0 0 0 0 0 0 0 0 0 0 0 0 0 0
0 0 0 0 0 0 0 0 0 0 0 0 0 0 0 0 0 0 0 0 0 0 0 0 0 0 0 0 0 0 0 0 0 0 0 0 0 0 0 0 0 0 0
0 0 0 0 0 0 0 0 0 0 0 0 0 0 0 0 0 0 0 0 0 0 0 0 0 0 0 0 0 0 0 0 0 0 0 0 0 0 0 0 0 0 0
11 21 26 33 10 0 0 0 0 0 0 0 0 0 0 0 0 0 0 0 0 0 0 0 0 0 0 0 0 0 0 0 0 0 0 0 0 0 0 0 0 0 0
16 36 39 37 26 22 26 23 14 2 0 0 0 0 0 0 0 0 0 0 0 0 0 0 0 0 0 0 0 0 0 0 0 0 0 0 0 0 0 0 1 2 2
4 1 0 0 1 6 15 25 32 32 29 2 0 0 0 0 0 0 0 0 0 0 0 0 0 0 0 0 0 0 0 0 0 0 0 0 0 0 1 3 4 4 5
CIN
-4 -17 -17 -10 -8 -7 -3 -2 -1 -5 -17 -2 -3 -1 -0 -0 -0 -0 -4 -1 -0 -0 -0 -0 -1 -0 -1 -2 -0 -0 -2 -1 -0 -6 -4 -2 -4 -0 -2 -0 -1 -1 -52
-12 -10 -13 -9 -9 -19 -20 -9 -4 -0 -1 -0 -9 -7 -5 -9 -0 -0 -0 -0 -0 -0 -1 -2 -1 -0 -1 -1 -1 -1 -1 -1 -0 -0 -2 -1 -5 -3 -0 -0 -1 -2 -1
-27 -26 -19 -15 -18 -29 -28 -21 -11 -2 -1 -2 -1 -1 -0 -1 -1 -1 -5 -0 -0 -1 -1 -1 -1 -0 -1 -1 -1 -1 -1 -2 -2 -0 -2 -0 -1 -2 -0 -1 -1 -1 -3
-32 -38 -38 -40 -26 -19 -11 -10 -8 -6 -8 -8 -4 -4 -1 -1 -0 -0 -1 -1 -1 -1 -1 -0 -0 -0 -1 -1 -1 -1 -1 -2 -1 -1 -1 -1 -1 -5 -1 -1 -2 -2 -15
-30 -33 -39 -27 -22 -14 -8 -5 -11 -5 -7 -11 -11 -8 -0 -0 -1 -1 -0 -1 -0 -0 -1 -1 -1 -2 -13 -13 -3 -1 -5 -4 -3 -1 -1 -1 -3 -4 -4 -2 -1 -3 -26
-34 -28 -25 -23 -27 -35 -21 -5 -2 -0 -1 -0 -0 -15 -10 -9 -145 -117 -60 -8 -3 -6 -1 -1 -0 -6 -28 -75 -85 -71 -54 -8 -10 -2 -1 -0 -0 -0 -5 -1 -1 -2 -0
-45 -29 -26 -10 -12 -22 -13 -11 -1 -0 -0 -0 -1 -0 -1 -100 -0 -0 -0 -43 -11 -10 -3 -1 -0 -1 -25 -0 -91 -118 -106 -108 -100 -24 -2 -0 -0 -0 -0 -1 -1 -0 -2
-67 -44 -19 -3 -1 -4 -2 -2 -0 -0 -0 -0 -0 -0 -0 -0 -0 -0 -0 -100 -5 -0 -2 -1 -0 -0 -1 -22 -5 -0 -8 -35 -65 -54 -1 -14 -4 -60 -25 -1 -0 -0 -0
-29 -25 -15 -23 -29 -24 -6 -1 -1 -0 -0 -0 -0 -1 -1 -26 -0 -0 -0 -25 -11 -0 -18 -10 -0 -83 -14 -0 -44 -1 -26 -0 -0 -0 -0 -0 -0 -0 -2 -13 -2 -2 -4
-49 -82 -75 -58 -166 -66 -68 -62 -93 -39 -29 -0 -0 -0 -0 -0 -0 -0 -0 -13 -0 -1 -50 -77 -0 -0 -0 -0 -42 -46 -94 -0 -0 -0 -0 -0 -0 -0 -0 -0 -0 -2 -2
-70 -63 -81 -102 -119 -79 -10 -0 -10 -53 -0 -0 -0 -0 -0 -0 -0 -0 -0 -0 -7 -0 -0 -0 -0 -0 -0 -0 -0 -13 -11 -24 -0 -0 -0 -0 -0 -0 -0 -0 -0 -0 -0
-35 -41 -45 -61 -79 -111 -0 -0 -0 -0 -0 -0 -0 -0 -0 -0 -0 -0 -0 -0 -0 -0 -0 -0 -0 -0 -0 -0 -0 -0 -0 -0 -0 -0 -0 -0 -0 -0 -0 -0 -0 -0 -0
-60 -117 -22 -0 -0 -69 -0 -0 -0 -0 -0 -0 -0 -0 -0 -0 -0 -0 -0 -0 -0 -0 -0 -0 -0 -0 -0 -0 -0 -0 -0 -0 -0 -0 -0 -0 -0 -0 -0 -0 -0 -0 -0
-0 -0 -0 -0 -0 -0 -0 -0 -0 -0 -0 -0 -0 -0 -0 -0 -0 -0 -0 -0 -0 -0 -0 -0 -0 -0 -0 -0 -0 -0 -0 -0 -0 -0 -0 -0 -0 -0 -0 -0 -0 -0 -0
-0 -0 -0 -0 -0 -0 -0 -0 -0 -0 -0 -0 -0 -0 -0 -0 -0 -0 -0 -0 -0 -0 -0 -0 -0 -0 -0 -0 -0 -0 -0 -0 -0 -0 -0 -0 -0 -0 -0 -0 -0 -0 -0
-0 -0 -0 -0 -0 -0 -0 -0 -0 -0 -0 -0 -0 -0 -0 -0 -0 -0 -0 -0 -0 -0 -0 -0 -0 -0 -0 -0 -0 -0 -0 -0 -0 -0 -0 -0 -0 -0 -0 -0 -0 -0 -0
-0 -0 -0 -0 -0 -0 -0 -0 -0 -0 -0 -0 -0 -0 -0 -0 -0 -0 -0 -0 -0 -0 -0 -0 -0 -0 -0 -0 -0 -0 -0 -0 -0 -0 -0 -0 -0 -0 -0 -0 -0 -0 -0
-0 -0 -0 -0 -0 -0 -0 -0 -0 -0 -0 -0 -0 -0 -0 -0 -0 -0 -0 -0 -0 -0 -0 -0 -0 -0 -0 -0 -0 -0 -0 -0 -0 -0 -0 -0 -0 -0 -0 -0 -0 -0 -0
-0 -0 -0 -0 -0 -0 -0 -0 -0 -0 -0 -0 -0 -0 -0 -0 -0 -0 -0 -0 -0 -0 -0 -0 -0 -0 -0 -0 -0 -0 -0 -0 -0 -0 -0 -0 -0 -0 -0 -0 -0 -0 -0
-0 -0 -0 -0 -0 -0 -0 -0 -0 -0 -0 -0 -0 -0 -0 -0 -0 -0 -0 -0 -0 -0 -0 -0 -0 -0 -0 -0 -0 -0 -0 -0 -0 -0 -0 -0 -0 -0 -0 -0 -0 -0 -0
-0 -0 -0 -0 -0 -0 -0 -0 -0 -0 -0 -0 -0 -0 -0 -0 -0 -0 -0 -0 -0 -0 -0 -0 -0 -0 -0 -0 -0 -0 -0 -0 -0 -0 -0 -0 -0 -0 -0 -0 -0 -0 -0
-0 -0 -0 -0 -0 -0 -0 -0 -0 -0 -0 -0 -0 -0 -0 -0 -0 -0 -0 -0 -0 -0 -0 -0 -0 -0 -0 -0 -0 -0 -0 -0 -0 -0 -0 -0 -0 -0 -0 -0 -0 -0 -0
-0 -0 -0 -0 -0 -0 -0 -0 -0 -0 -0 -0 -0 -0 -0 -0 -0 -0 -0 -0 -0 -0 -0 -0 -0 -0 -0 -0 -0 -0 -0 -0 -0 -0 -0 -0 -0 -0 -0 -0 -0 -0 -0
-0 -1 -1 -1 -1 -0 -0 -0 -0 -0 -0 -0 -0 -0 -0 -0 -0 -0 -0 -0 -0 -0 -0 -0 -0 -0 -0 -0 -0 -0 -0 -0 -0 -0 -0 -0 -0 -0 -0 -0 -0 -0 -1
-1 -1 -1 -1 -2 -2 -2 -3 -1 -3 -0 -0 -0 -0 -0 -0 -0 -0 -0 -0 -0 -0 -0 -0 -0 -0 -0 -0 -0 -0 -0 -0 -0 -0 -0 -0 -0 -0 -0 -0 -1 -1 -1
-0 -0 -0 -0 -2 -1 -2 -1 -2 -2 -2 -1 -0 -0 -0 -0 -0 -0 -0 -0 -0 -0 -0 -0 -0 -0 -0 -0 -0 -0 -0 -0 -0 -0 -0 -0 -0 -0 -1 -0 -0 -1 -1
Wind_Speed
23 33 33 32 31 31 31 31 30 28 28 26 27 28 29 29 29 27 28 28 27 28 28 27 26 26 26 26 25 24 25 24 25 26 27 19 20 14 21 19 13 8 20
15 18 22 22 25 10 22 31 30 30 28 28 24 27 28 24 25 29 29 29 26 29 29 26 28 27 22 24 26 24 27 27 27 28 26 23 17 20 19 18 22 20 19
5 11 16 18 11 15 14 13 18 27 29 29 22 23 26 28 28 23 16 21 24 26 23 19 22 21 20 25 24 25 23 17 14 20 26 19 21 17 19 14 18 17 18
14 9 4 4 4 3 3 2 3 4 16 24 27 25 25 26 24 16 11 16 21 22 19 18 21 21 18 15 18 19 19 21 21 21 23 22 19 17 18 20 19 19 21
18 17 17 16 15 14 17 16 17 16 16 15 17 18 20 24 24 22 19 20 20 19 20 20 18 19 21 20 20 20 20 18 18 20 21 23 22 24 21 20 18 17 17
18 19 17 17 16 16 15 15 15 19 20 21 21 21 21 21 22 24 26 23 22 24 25 23 21 19 20 19 19 19 19 18 19 20 23 22 22 20 19 20 21 19 16
21 21 21 19 17 14 16 17 18 17 17 19 21 21 20 18 22 24 25 26 24 18 16 19 19 18 18 17 19 18 19 19 20 22 23 24 24 21 21 21 18 19 19
19 18 19 22 23 24 19 20 19 22 20 19 19 19 20 20 22 23 24 25 24 23 21 19 20 20 19 19 19 18 18 20 22 23 22 21 23 24 21 21 19 18 17
25 24 22 20 18 20 23 22 24 24 21 17 17 18 18 19 21 23 23 24 22 22 22 22 22 22 22 20 20 19 19 19 19 18 18 18 20 22 21 19 17 20 18
19 15 16 15 19 21 25 23 23 22 22 19 19 21 21 24 27 28 27 25 26 25 23 23 24 26 24 23 21 21 21 19 17 15 16 18 19 20 21 21 22 24 24
13 14 15 20 20 21 18 22 21 20 21 18 19 22 22 26 25 27 27 27 24 25 24 22 23 23 23 21 20 19 20 14 17 16 17 17 18 19 20 21 23 25 26
7 9 11 14 14 14 15 13 18 10 15 17 16 17 18 19 19 20 19 18 19 17 19 19 18 18 18 20 17 16 18 16 17 18 17 19 20 22 21 22 23 22 22
9 9 10 12 13 13 14 13 11 12 9 9 10 12 14 15 17 17 17 17 17 17 16 15 16 18 18 18 19 18 18 18 17 17 17 18 20 21 21 20 20 20 20
10 11 12 12 13 12 13 13 11 12 13 11 12 13 13 14 14 14 16 17 16 16 16 17 18 18 18 17 17 18 17 17 17 18 19 20 20 22 23 24 22 20 20
10 11 11 12 11 12 10 13 13 13 13 13 11 11 11 16 15 15 16 17 17 17 17 18 19 18 18 17 17 17 17 16 18 17 18 20 21 20 22 20 21 20 20
9 10 11 10 11 11 12 13 16 15 15 15 15 15 16 15 15 17 19 18 16 14 18 20 20 19 20 19 18 17 17 18 18 18 19 20 22 21 21 19 19 21 21
10 10 11 12 12 12 12 14 15 16 16 15 15 14 16 15 17 18 20 19 17 18 20 19 18 18 18 18 18 21 20 20 18 18 20 20 20 20 21 21 21 22 22
10 11 11 11 12 13 14 14 14 15 16 16 15 16 16 16 18 19 20 19 21 21 22 21 21 22 20 20 22 21 22 21 21 21 21 21 21 20 21 21 20 22 24
11 12 12 12 13 13 13 14 15 16 16 16 15 15 16 16 18 19 19 20 23 22 21 21 20 20 20 21 21 22 22 22 21 21 21 21 22 22 21 23 24 26 27
12 12 13 13 13 13 14 15 17 17 17 17 17 17 16 17 19 20 19 19 19 20 19 19 18 17 19 18 19 20 21 20 20 20 21 20 20 21 22 23 23 23 24
12 12 14 15 16 17 17 16 17 17 17 16 17 17 18 19 20 19 19 18 19 19 18 18 18 18 19 19 20 20 19 19 19 19 19 19 20 22 22 21 22 23 24
15 15 16 17 17 17 17 18 18 19 20 21 20 19 18 18 20 19 19 19 18 17 16 16 18 19 20 21 21 20 19 19 18 18 19 20 20 20 20 20 20 21 20
17 18 18 19 19 19 20 20 21 22 22 21 20 20 18 18 18 19 18 17 16 16 17 18 19 20 20 19 18 18 18 18 17 17 17 18 18 18 18 19 19 19 20
19 19 21 21 21 23 23 22 22 21 22 22 20 19 19 18 17 17 16 15 16 17 18 19 19 19 17 16 16 15 15 15 15 15 16 16 17 17 16 17 17 19 18
21 21 23 24 24 24 24 23 24 25 23 22 21 20 19 18 18 18 18 17 16 16 17 18 18 17 16 15 14 15 14 14 16 15 15 16 16 16 16 16 17 17 17
20 22 23 24 25 25 26 26 25 24 24 22 22 21 20 20 20 22 19 18 16 16 16 16 15 15 15 16 15 12 12 12 12 13 14 14 14 15 15 16 16 17 16
Wind_Direction
168 195 210 221 226 232 228 216 211 215 213 205 212 253 248 237 229 213 228 246 252 252 256 255 251 273 258 280 296 303 299 312 270 304 313 359 359 27 351 16 36 98 16
160 164 171 174 252 278 217 222 243 232 244 221 265 217 250 276 274 252 227 248 275 262 267 286 273 283 309 302 293 309 295 300 295 296 313 329 2 350 1 9 356 6 8
183 160 165 168 162 168 167 168 185 255 254 256 283 276 271 266 269 282 298 292 288 285 294 308 308 312 316 299 305 302 313 332 340 329 309 340 342 356 354 19 7 8 9
261 261 228 204 239 210 189 204 177 297 293 277 269 278 279 279 285 300 305 301 296 297 305 309 308 309 318 326 323 323 327 321 323 324 319 326 339 347 351 345 348 357 348
259 261 265 272 277 281 281 284 285 289 294 300 299 296 293 287 288 291 298 297 301 304 303 307 313 312 313 315 317 321 322 327 330 327 326 321 324 321 333 342 347 353 359
259 263 269 273 277 281 285 289 289 286 287 287 290 292 296 296 298 295 293 299 299 293 291 298 304 312 312 317 317 318 319 322 321 321 320 323 324 329 333 336 333 336 343
260 267 274 279 282 282 285 286 286 289 291 291 291 292 294 298 297 297 298 299 302 308 310 307 307 312 315 318 319 318 317 316 314 313 312 314 315 323 328 329 333 335 334
268 274 283 283 283 283 284 283 285 285 288 290 290 292 294 298 299 300 302 302 300 302 305 309 309 309 314 317 315 317 316 317 315 311 313 318 315 314 323 326 328 334 338
267 271 283 286 290 287 284 285 285 287 289 293 292 293 295 297 307 305 303 302 303 302 302 305 306 307 308 315 315 309 308 314 319 322 321 324 326 323 324 325 325 324 329
274 291 293 298 301 298 291 284 280 286 289 292 292 292 299 293 299 298 297 298 297 298 302 306 306 303 307 303 305 306 300 302 310 320 324 325 325 329 331 328 323 320 322
291 297 304 299 310 311 307 296 287 287 282 292 292 293 297 297 301 298 297 296 300 298 302 305 308 312 311 310 308 305 299 303 308 314 320 322 325 326 330 330 329 324 319
333 332 333 337 343 352 346 339 306 305 296 284 299 303 301 306 306 312 316 316 313 315 313 313 320 322 323 314 318 316 310 308 310 312 314 318 319 320 324 326 329 330 329
334 331 337 344 349 5 356 4 357 348 321 333 332 324 324 318 313 321 324 326 325 322 326 330 324 321 324 324 322 316 314 311 311 316 317 318 319 322 325 328 331 330 334
332 325 329 339 347 341 352 11 354 326 319 334 332 326 336 321 336 350 337 334 338 330 332 330 317 322 324 320 319 322 322 325 324 320 321 321 321 320 320 320 324 324 323
339 337 341 345 350 356 327 326 346 338 339 339 358 341 344 320 329 338 333 328 326 325 327 321 318 319 322 323 324 329 330 329 323 324 322 319 324 327 327 329 328 328 323
346 336 339 343 346 349 337 344 340 327 329 333 329 323 322 326 330 330 328 328 331 332 323 317 317 316 315 316 320 324 328 327 328 325 324 323 322 322 324 331 331 327 323
342 336 342 342 343 345 345 341 339 333 332 333 332 333 328 331 329 328 327 329 329 329 323 320 320 319 320 319 319 318 318 324 326 326 324 324 322 322 322 325 326 325 325
359 354 350 350 349 347 343 342 340 337 334 335 340 337 335 330 326 328 329 329 321 318 316 313 312 312 314 313 314 313 313 317 315 317 317 318 319 321 321 322 325 323 324
342 341 350 353 349 345 345 343 342 343 342 342 349 346 344 340 335 332 330 323 319 316 315 312 311 312 312 312 313 313 315 316 316 316 316 316 317 315 318 320 321 320 319
358 353 348 349 345 344 342 338 333 335 335 336 337 338 342 340 334 332 332 329 325 322 320 317 317 318 317 318 318 318 317 317 317 317 318 320 320 321 323 324 325 326 328
349 349 338 336 334 331 332 334 336 334 335 337 336 337 336 332 331 331 330 329 326 325 322 319 318 317 316 316 316 316 316 316 317 318 317 318 320 321 323 325 326 326 326
331 329 331 329 333 333 333 330 330 327 326 326 327 329 329 326 326 326 327 327 330 330 328 325 320 316 314 312 312 312 313 315 317 318 319 320 322 324 325 326 328 329 332
326 327 329 328 328 328 325 324 325 324 324 325 326 326 328 324 322 322 323 326 328 328 326 322 318 315 315 316 317 315 314 316 318 322 322 324 325 325 327 327 330 331 332
323 324 324 323 324 322 321 323 323 323 321 322 324 324 323 323 321 319 319 320 320 320 319 317 316 316 318 319 322 323 322 322 324 326 326 327 328 331 332 334 335 335 337
318 319 319 319 321 322 322 322 322 321 321 322 320 320 319 319 316 313 310 308 308 309 312 316 318 318 318 320 322 322 323 320 321 326 329 331 332 332 333 335 337 340 341
326 325 324 325 324 323 322 322 322 322 320 320 316 314 315 314 313 313 309 306 306 306 309 313 317 318 315 314 317 327 330 331 335 335 336 336 335 335 336 335 337 337 340